Time,TemperatureF,DewpointF,PressureIn,WindDirection,WindDirectionDegrees,WindSpeedMPH,WindSpeedGustMPH,Humidity,HourlyPrecipIn,Conditions,Clouds,dailyrainin,SoftwareType,DateUTC
2013-02-03 00:01:00,48.0,44.9,30.32,South,179,5.0,7.0,89,0.00,,---,0.00,VWS V14.01,2013-02-03 08:01:00,
2013-02-03 00:06:00,48.0,44.9,30.32,South,178,3.0,5.0,89,0.00,,---,0.00,VWS V14.01,2013-02-03 08:06:00,
2013-02-03 00:11:00,48.0,44.9,30.32,SSE,150,2.0,4.0,89,0.00,,---,0.00,VWS V14.01,2013-02-03 08:11:00,
2013-02-03 00:16:00,48.0,44.9,30.31,South,169,3.0,6.0,89,0.00,,---,0.00,VWS V14.01,2013-02-03 08:16:00,
2013-02-03 00:21:00,48.0,44.9,30.31,SSE,164,5.0,6.0,89,0.00,,---,0.00,VWS V14.01,2013-02-03 08:21:00,
2013-02-03 00:26:00,48.0,44.6,30.31,South,172,5.0,9.0,88,0.00,,---,0.00,VWS V14.01,2013-02-03 08:26:00,
2013-02-03 00:31:00,48.1,44.7,30.31,SE,143,3.0,5.0,88,0.00,,---,0.00,VWS V14.01,2013-02-03 08:31:00,
2013-02-03 00:36:00,48.1,44.7,30.31,SE,128,4.0,5.0,88,0.00,,---,0.00,VWS V14.01,2013-02-03 08:36:00,
2013-02-03 00:41:00,47.9,44.5,30.31,ESE,109,4.0,5.0,88,0.00,,---,0.00,VWS V14.01,2013-02-03 08:41:00,
2013-02-03 00:46:00,47.8,44.7,30.31,ESE,119,2.0,2.0,89,0.00,,---,0.00,VWS V14.01,2013-02-03 08:46:00,
2013-02-03 00:51:00,47.7,44.6,30.31,ESE,123,3.0,5.0,89,0.00,,---,0.00,VWS V14.01,2013-02-03 08:51:00,
2013-02-03 00:57:00,47.6,44.5,30.31,SE,144,2.0,6.0,89,0.00,,---,0.00,VWS V14.01,2013-02-03 08:57:00,
2013-02-03 01:02:00,47.6,44.5,30.31,SE,129,2.0,3.0,89,0.00,,---,0.00,VWS V14.01,2013-02-03 09:02:00,
2013-02-03 01:07:00,47.6,44.5,30.31,SE,132,2.0,4.0,89,0.00,,---,0.00,VWS V14.01,2013-02-03 09:07:00,
2013-02-03 01:12:00,47.5,44.4,30.31,SE,144,2.0,4.0,89,0.00,,---,0.00,VWS V14.01,2013-02-03 09:12:00,
2013-02-03 01:17:00,47.5,44.4,30.30,ESE,110,2.0,3.0,89,0.00,,---,0.00,VWS V14.01,2013-02-03 09:17:00,
2013-02-03 01:22:00,47.4,44.3,30.30,ESE,115,3.0,5.0,89,0.00,,---,0.00,VWS V14.01,2013-02-03 09:22:00,
2013-02-03 01:27:00,47.4,44.3,30.30,SE,134,3.0,5.0,89,0.00,,---,0.00,VWS V14.01,2013-02-03 09:27:00,
2013-02-03 01:32:00,47.4,44.3,30.30,ESE,117,4.0,5.0,89,0.00,,---,0.00,VWS V14.01,2013-02-03 09:32:00,
2013-02-03 01:37:00,47.3,44.2,30.30,ESE,117,3.0,4.0,89,0.00,,---,0.00,VWS V14.01,2013-02-03 09:37:00,
2013-02-03 01:42:00,47.3,44.2,30.30,SE,126,3.0,6.0,89,0.00,,---,0.00,VWS V14.01,2013-02-03 09:42:00,
2013-02-03 01:47:00,47.3,44.2,30.30,East,101,5.0,8.0,89,0.00,,---,0.00,VWS V14.01,2013-02-03 09:47:00,
2013-02-03 01:52:00,47.3,44.2,30.30,ESE,121,3.0,8.0,89,0.00,,---,0.00,VWS V14.01,2013-02-03 09:52:00,
2013-02-03 01:57:00,47.3,44.2,30.30,SE,144,3.0,6.0,89,0.00,,---,0.00,VWS V14.01,2013-02-03 09:57:00,
2013-02-03 02:02:00,47.4,44.3,30.30,SE,136,2.0,5.0,89,0.00,,---,0.00,VWS V14.01,2013-02-03 10:02:00,
2013-02-03 02:07:00,47.4,44.0,30.30,SSE,151,0.0,1.0,88,0.00,,---,0.00,VWS V14.01,2013-02-03 10:07:00,
2013-02-03 02:12:00,47.4,44.0,30.30,SE,138,0.0,4.0,88,0.00,,---,0.00,VWS V14.01,2013-02-03 10:12:00,
2013-02-03 02:17:00,47.4,44.0,30.31,SSE,155,1.0,2.0,88,0.00,,---,0.00,VWS V14.01,2013-02-03 10:17:00,
2013-02-03 02:22:00,47.4,44.0,30.31,South,169,6.0,8.0,88,0.00,,---,0.00,VWS V14.01,2013-02-03 10:22:00,
2013-02-03 02:27:00,47.6,44.2,30.31,South,180,4.0,6.0,88,0.00,,---,0.00,VWS V14.01,2013-02-03 10:27:00,
2013-02-03 02:32:00,47.7,44.3,30.31,South,187,1.0,6.0,88,0.00,,---,0.00,VWS V14.01,2013-02-03 10:32:00,
2013-02-03 02:37:00,47.7,44.3,30.31,SSE,151,3.0,5.0,88,0.00,,---,0.00,VWS V14.01,2013-02-03 10:37:00,
2013-02-03 02:42:00,47.6,44.2,30.31,ESE,110,3.0,5.0,88,0.00,,---,0.00,VWS V14.01,2013-02-03 10:42:00,
2013-02-03 02:47:00,47.5,44.1,30.31,ESE,116,3.0,4.0,88,0.00,,---,0.00,VWS V14.01,2013-02-03 10:47:00,
2013-02-03 02:52:00,47.4,44.0,30.31,ESE,119,1.0,4.0,88,0.00,,---,0.00,VWS V14.01,2013-02-03 10:52:00,
2013-02-03 02:57:00,47.4,44.0,30.31,SE,134,3.0,5.0,88,0.00,,---,0.00,VWS V14.01,2013-02-03 10:57:00,
2013-02-03 03:02:00,47.3,43.9,30.30,SE,128,2.0,4.0,88,0.00,,---,0.00,VWS V14.01,2013-02-03 11:02:00,
2013-02-03 03:07:00,47.3,43.9,30.30,ESE,123,1.0,4.0,88,0.00,,---,0.00,VWS V14.01,2013-02-03 11:07:00,
2013-02-03 03:12:00,47.3,43.9,30.30,SE,146,6.0,6.0,88,0.00,,---,0.00,VWS V14.01,2013-02-03 11:12:00,
2013-02-03 03:17:00,47.3,43.9,30.30,SE,144,2.0,5.0,88,0.00,,---,0.00,VWS V14.01,2013-02-03 11:17:00,
2013-02-03 03:22:00,47.3,43.9,30.30,SE,143,3.0,5.0,88,0.00,,---,0.00,VWS V14.01,2013-02-03 11:22:00,
2013-02-03 03:27:00,47.3,43.9,30.30,SE,138,3.0,5.0,88,0.00,,---,0.00,VWS V14.01,2013-02-03 11:27:00,
2013-02-03 03:32:00,47.3,43.9,30.30,SE,131,3.0,7.0,88,0.00,,---,0.00,VWS V14.01,2013-02-03 11:32:00,
2013-02-03 03:37:00,47.2,44.1,30.30,SE,146,3.0,4.0,89,0.00,,---,0.00,VWS V14.01,2013-02-03 11:37:00,
2013-02-03 03:43:00,47.2,44.1,30.30,SE,132,2.0,4.0,89,0.00,,---,0.00,VWS V14.01,2013-02-03 11:43:00,
2013-02-03 03:48:00,47.2,44.1,30.30,SE,130,3.0,5.0,89,0.00,,---,0.00,VWS V14.01,2013-02-03 11:48:00,
2013-02-03 03:53:00,47.2,44.1,30.30,ESE,105,3.0,5.0,89,0.00,,---,0.00,VWS V14.01,2013-02-03 11:53:00,
2013-02-03 03:58:00,47.1,44.0,30.30,SE,124,3.0,6.0,89,0.00,,---,0.00,VWS V14.01,2013-02-03 11:58:00,
2013-02-03 04:03:00,47.1,44.0,30.30,ESE,118,2.0,6.0,89,0.00,,---,0.00,VWS V14.01,2013-02-03 12:03:00,
2013-02-03 04:08:00,47.1,44.0,30.30,ESE,119,2.0,7.0,89,0.00,,---,0.00,VWS V14.01,2013-02-03 12:08:00,
2013-02-03 04:13:00,47.1,44.0,30.30,SE,130,2.0,6.0,89,0.00,,---,0.00,VWS V14.01,2013-02-03 12:13:00,
2013-02-03 04:18:00,47.1,44.0,30.31,SE,138,5.0,7.0,89,0.00,,---,0.00,VWS V14.01,2013-02-03 12:18:00,
2013-02-03 04:23:00,47.1,44.0,30.31,SE,133,4.0,7.0,89,0.00,,---,0.00,VWS V14.01,2013-02-03 12:23:00,
2013-02-03 04:28:00,47.2,44.1,30.31,SE,144,5.0,6.0,89,0.00,,---,0.00,VWS V14.01,2013-02-03 12:28:00,
2013-02-03 04:33:00,47.1,44.0,30.30,ESE,112,3.0,7.0,89,0.00,,---,0.00,VWS V14.01,2013-02-03 12:33:00,
2013-02-03 04:38:00,47.1,44.0,30.30,ESE,113,7.0,8.0,89,0.00,,---,0.00,VWS V14.01,2013-02-03 12:38:00,
2013-02-03 04:43:00,47.1,44.0,30.30,SSE,167,4.0,6.0,89,0.00,,---,0.00,VWS V14.01,2013-02-03 12:43:00,
2013-02-03 04:48:00,47.0,43.9,30.30,SSE,163,8.0,8.0,89,0.00,,---,0.00,VWS V14.01,2013-02-03 12:48:00,
2013-02-03 04:53:00,47.0,43.9,30.30,SE,142,1.0,8.0,89,0.00,,---,0.00,VWS V14.01,2013-02-03 12:53:00,
2013-02-03 04:58:00,47.0,43.9,30.30,SSE,152,1.0,5.0,89,0.00,,---,0.00,VWS V14.01,2013-02-03 12:58:00,
2013-02-03 05:03:00,47.0,43.9,30.30,SSE,147,2.0,6.0,89,0.00,,---,0.00,VWS V14.01,2013-02-03 13:03:00,
2013-02-03 05:08:00,47.0,43.9,30.30,SE,136,1.0,3.0,89,0.00,,---,0.00,VWS V14.01,2013-02-03 13:08:00,
2013-02-03 05:13:00,47.0,43.9,30.30,SE,138,2.0,4.0,89,0.00,,---,0.00,VWS V14.01,2013-02-03 13:13:00,
2013-02-03 05:18:00,47.0,43.9,30.30,SE,133,2.0,2.0,89,0.00,,---,0.00,VWS V14.01,2013-02-03 13:18:00,
2013-02-03 05:23:00,47.0,43.9,30.30,SE,126,0.0,2.0,89,0.00,,---,0.00,VWS V14.01,2013-02-03 13:23:00,
2013-02-03 05:28:00,47.0,44.2,30.30,SE,137,0.0,1.0,90,0.00,,---,0.00,VWS V14.01,2013-02-03 13:28:00,
2013-02-03 05:33:00,47.1,44.3,30.31,SE,137,0.0,2.0,90,0.00,,---,0.00,VWS V14.01,2013-02-03 13:33:00,
2013-02-03 05:38:00,47.2,44.4,30.31,SE,137,0.0,0.0,90,0.00,,---,0.00,VWS V14.01,2013-02-03 13:38:00,
2013-02-03 05:43:00,47.1,44.3,30.31,SE,137,1.0,2.0,90,0.00,,---,0.00,VWS V14.01,2013-02-03 13:43:00,
2013-02-03 05:48:00,47.0,44.2,30.30,SE,137,0.0,2.0,90,0.00,,---,0.00,VWS V14.01,2013-02-03 13:48:00,
2013-02-03 05:53:00,46.9,44.1,30.30,SE,132,1.0,2.0,90,0.00,,---,0.00,VWS V14.01,2013-02-03 13:53:00,
2013-02-03 05:58:00,46.9,44.1,30.30,ESE,105,0.0,2.0,90,0.00,,---,0.00,VWS V14.01,2013-02-03 13:58:00,
2013-02-03 06:03:00,46.8,44.0,30.30,ESE,105,0.0,2.0,90,0.00,,---,0.00,VWS V14.01,2013-02-03 14:03:00,
2013-02-03 06:09:00,46.8,44.0,30.30,ESE,105,1.0,2.0,90,0.00,,---,0.00,VWS V14.01,2013-02-03 14:09:00,
2013-02-03 06:14:00,46.7,43.9,30.30,ESE,105,1.0,2.0,90,0.00,,---,0.00,VWS V14.01,2013-02-03 14:14:00,
2013-02-03 06:19:00,46.7,43.9,30.31,ESE,105,0.0,0.0,90,0.00,,---,0.00,VWS V14.01,2013-02-03 14:19:00,
2013-02-03 06:24:00,46.7,44.2,30.31,ESE,105,0.0,0.0,91,0.00,,---,0.00,VWS V14.01,2013-02-03 14:24:00,
2013-02-03 06:29:00,46.7,44.2,30.31,ESE,105,0.0,0.0,91,0.00,,---,0.00,VWS V14.01,2013-02-03 14:29:00,
2013-02-03 06:34:00,46.7,44.2,30.31,ESE,105,2.0,3.0,91,0.00,,---,0.00,VWS V14.01,2013-02-03 14:34:00,
2013-02-03 06:39:00,46.7,44.2,30.31,ESE,105,2.0,2.0,91,0.00,,---,0.00,VWS V14.01,2013-02-03 14:39:00,
2013-02-03 06:44:00,46.7,44.2,30.31,ESE,109,2.0,4.0,91,0.00,,---,0.00,VWS V14.01,2013-02-03 14:44:00,
2013-02-03 06:49:00,46.6,44.1,30.30,ESE,106,5.0,5.0,91,0.00,,---,0.00,VWS V14.01,2013-02-03 14:49:00,
2013-02-03 06:54:00,46.7,44.2,30.30,SE,134,4.0,7.0,91,0.00,,---,0.00,VWS V14.01,2013-02-03 14:54:00,
2013-02-03 06:59:00,46.7,44.2,30.30,ESE,114,3.0,8.0,91,0.00,,---,0.00,VWS V14.01,2013-02-03 14:59:00,
2013-02-03 07:04:00,46.6,44.1,30.28,ESE,102,3.0,5.0,91,0.00,,---,0.00,VWS V14.01,2013-02-03 15:04:00,
2013-02-03 07:09:00,46.6,44.1,30.28,ESE,105,3.0,7.0,91,0.00,,---,0.00,VWS V14.01,2013-02-03 15:09:00,
2013-02-03 07:14:00,46.5,44.0,30.28,East,101,5.0,5.0,91,0.00,,---,0.00,VWS V14.01,2013-02-03 15:14:00,
2013-02-03 07:19:00,46.5,44.0,30.29,ESE,103,0.0,5.0,91,0.00,,---,0.00,VWS V14.01,2013-02-03 15:19:00,
2013-02-03 07:24:00,46.5,44.0,30.29,East,92,3.0,3.0,91,0.00,,---,0.00,VWS V14.01,2013-02-03 15:24:00,
2013-02-03 07:29:00,46.5,44.0,30.29,ESE,119,2.0,4.0,91,0.00,,---,0.00,VWS V14.01,2013-02-03 15:29:00,
2013-02-03 07:34:00,46.5,44.0,30.30,ESE,109,1.0,3.0,91,0.00,,---,0.00,VWS V14.01,2013-02-03 15:34:00,
2013-02-03 07:39:00,46.4,43.9,30.30,ESE,121,2.0,5.0,91,0.00,,---,0.00,VWS V14.01,2013-02-03 15:39:00,
2013-02-03 07:44:00,46.4,43.9,30.31,ESE,120,3.0,4.0,91,0.00,,---,0.00,VWS V14.01,2013-02-03 15:44:00,
2013-02-03 07:49:00,46.5,44.0,30.31,ESE,105,1.0,5.0,91,0.00,,---,0.00,VWS V14.01,2013-02-03 15:49:00,
2013-02-03 07:54:00,46.5,44.0,30.31,ESE,111,3.0,5.0,91,0.00,,---,0.00,VWS V14.01,2013-02-03 15:54:00,
2013-02-03 07:59:00,46.5,44.0,30.31,ESE,113,1.0,4.0,91,0.00,,---,0.00,VWS V14.01,2013-02-03 15:59:00,
2013-02-03 08:04:00,46.5,44.0,30.31,ESE,110,1.0,5.0,91,0.00,,---,0.00,VWS V14.01,2013-02-03 16:04:00,
2013-02-03 08:09:00,46.5,44.0,30.31,SE,136,1.0,4.0,91,0.00,,---,0.00,VWS V14.01,2013-02-03 16:09:00,
2013-02-03 08:14:00,46.5,44.0,30.32,SE,136,0.0,1.0,91,0.00,,---,0.00,VWS V14.01,2013-02-03 16:14:00,
2013-02-03 08:19:00,46.6,44.1,30.32,SE,136,0.0,2.0,91,0.00,,---,0.00,VWS V14.01,2013-02-03 16:19:00,
2013-02-03 08:24:00,46.6,44.1,30.32,ESE,113,0.0,1.0,91,0.00,,---,0.00,VWS V14.01,2013-02-03 16:24:00,
2013-02-03 08:29:00,46.6,44.1,30.32,ESE,113,1.0,2.0,91,0.00,,---,0.00,VWS V14.01,2013-02-03 16:29:00,
2013-02-03 08:34:00,46.6,44.1,30.32,ESE,113,1.0,2.0,91,0.00,,---,0.00,VWS V14.01,2013-02-03 16:34:00,
2013-02-03 08:39:00,46.6,44.1,30.32,ESE,108,0.0,3.0,91,0.00,,---,0.00,VWS V14.01,2013-02-03 16:39:00,
2013-02-03 08:44:00,46.6,44.1,30.32,SE,133,1.0,2.0,91,0.00,,---,0.00,VWS V14.01,2013-02-03 16:44:00,
2013-02-03 08:49:00,46.8,44.3,30.32,SSE,154,2.0,3.0,91,0.00,,---,0.00,VWS V14.01,2013-02-03 16:49:00,
2013-02-03 08:54:00,46.7,44.2,30.32,SE,125,2.0,4.0,91,0.00,,---,0.00,VWS V14.01,2013-02-03 16:54:00,
2013-02-03 08:59:00,46.8,44.3,30.32,SE,128,2.0,6.0,91,0.00,,---,0.00,VWS V14.01,2013-02-03 16:59:00,
2013-02-03 09:04:00,46.8,44.3,30.32,ESE,113,0.0,4.0,91,0.00,,---,0.00,VWS V14.01,2013-02-03 17:04:00,
2013-02-03 09:09:00,46.9,44.4,30.32,SE,143,2.0,4.0,91,0.00,,---,0.00,VWS V14.01,2013-02-03 17:09:00,
2013-02-03 09:15:00,46.9,44.4,30.32,ESE,121,2.0,4.0,91,0.00,,---,0.00,VWS V14.01,2013-02-03 17:15:00,
2013-02-03 09:20:00,46.9,44.4,30.32,SE,129,3.0,4.0,91,0.00,,---,0.00,VWS V14.01,2013-02-03 17:20:00,
2013-02-03 09:25:00,46.9,44.4,30.32,SE,129,0.0,3.0,91,0.00,,---,0.00,VWS V14.01,2013-02-03 17:25:00,
2013-02-03 09:30:00,47.0,44.5,30.33,ESE,111,0.0,3.0,91,0.00,,---,0.00,VWS V14.01,2013-02-03 17:30:00,
2013-02-03 09:35:00,47.0,44.5,30.33,ESE,111,0.0,2.0,91,0.00,,---,0.00,VWS V14.01,2013-02-03 17:35:00,
2013-02-03 09:40:00,47.0,44.5,30.33,ESE,111,0.0,1.0,91,0.00,,---,0.00,VWS V14.01,2013-02-03 17:40:00,
2013-02-03 09:45:00,47.1,44.6,30.34,ESE,111,0.0,2.0,91,0.00,,---,0.00,VWS V14.01,2013-02-03 17:45:00,
2013-02-03 09:50:00,47.2,44.7,30.34,ESE,111,2.0,2.0,91,0.00,,---,0.00,VWS V14.01,2013-02-03 17:50:00,
2013-02-03 09:55:00,47.3,44.8,30.34,ESE,111,0.0,0.0,91,0.00,,---,0.00,VWS V14.01,2013-02-03 17:55:00,
2013-02-03 10:00:00,47.3,44.8,30.33,ESE,111,2.0,2.0,91,0.00,,---,0.00,VWS V14.01,2013-02-03 18:00:00,
2013-02-03 10:05:00,47.4,44.9,30.33,ESE,122,3.0,3.0,91,0.00,,---,0.00,VWS V14.01,2013-02-03 18:05:00,
2013-02-03 10:10:00,47.4,44.9,30.33,SE,136,3.0,3.0,91,0.00,,---,0.00,VWS V14.01,2013-02-03 18:10:00,
2013-02-03 10:15:00,47.4,44.9,30.33,SE,140,3.0,3.0,91,0.00,,---,0.00,VWS V14.01,2013-02-03 18:15:00,
2013-02-03 10:20:00,47.5,45.0,30.33,ESE,119,5.0,5.0,91,0.00,,---,0.00,VWS V14.01,2013-02-03 18:20:00,
2013-02-03 10:25:00,47.6,44.8,30.33,SE,138,5.0,5.0,90,0.00,,---,0.00,VWS V14.01,2013-02-03 18:25:00,
2013-02-03 10:30:00,47.7,44.9,30.34,SE,138,1.0,3.0,90,0.00,,---,0.00,VWS V14.01,2013-02-03 18:30:00,
2013-02-03 10:35:00,47.7,44.9,30.34,SSE,157,1.0,2.0,90,0.00,,---,0.00,VWS V14.01,2013-02-03 18:35:00,
2013-02-03 10:40:00,47.8,45.0,30.34,South,173,3.0,3.0,90,0.00,,---,0.00,VWS V14.01,2013-02-03 18:40:00,
2013-02-03 10:45:00,47.8,45.0,30.34,South,173,3.0,3.0,90,0.00,,---,0.00,VWS V14.01,2013-02-03 18:45:00,
2013-02-03 10:50:00,47.8,45.0,30.34,South,182,0.0,1.0,90,0.00,,---,0.00,VWS V14.01,2013-02-03 18:50:00,
2013-02-03 10:55:00,47.9,45.1,30.34,South,182,1.0,2.0,90,0.00,,---,0.00,VWS V14.01,2013-02-03 18:55:00,
2013-02-03 11:00:00,47.9,45.1,30.34,SSW,196,4.0,6.0,90,0.00,,---,0.00,VWS V14.01,2013-02-03 19:00:00,
2013-02-03 11:05:00,47.7,44.9,30.34,West,268,6.0,8.0,90,0.00,,---,0.00,VWS V14.01,2013-02-03 19:05:00,
2013-02-03 11:10:00,47.5,44.7,30.34,WNW,292,5.0,5.0,90,0.00,,---,0.00,VWS V14.01,2013-02-03 19:10:00,
2013-02-03 11:15:00,47.5,44.7,30.34,West,274,4.0,4.0,90,0.00,,---,0.00,VWS V14.01,2013-02-03 19:15:00,
2013-02-03 11:20:00,47.4,44.6,30.34,West,279,4.0,4.0,90,0.00,,---,0.00,VWS V14.01,2013-02-03 19:20:00,
2013-02-03 11:25:00,47.3,44.5,30.34,West,279,4.0,6.0,90,0.00,,---,0.00,VWS V14.01,2013-02-03 19:25:00,
2013-02-03 11:31:00,47.2,44.7,30.34,WSW,249,4.0,4.0,91,0.00,,---,0.00,VWS V14.01,2013-02-03 19:31:00,
2013-02-03 11:36:00,47.1,44.3,30.34,WNW,294,3.0,5.0,90,0.00,,---,0.00,VWS V14.01,2013-02-03 19:36:00,
2013-02-03 11:41:00,46.9,44.1,30.34,West,265,1.0,2.0,90,0.00,,---,0.00,VWS V14.01,2013-02-03 19:41:00,
2013-02-03 11:46:00,46.9,44.1,30.33,NW,304,2.0,3.0,90,0.00,,---,0.00,VWS V14.01,2013-02-03 19:46:00,
2013-02-03 11:51:00,46.9,44.1,30.33,NW,315,0.0,2.0,90,0.00,,---,0.00,VWS V14.01,2013-02-03 19:51:00,
2013-02-03 11:56:00,47.0,44.2,30.33,North,355,0.0,1.0,90,0.00,,---,0.00,VWS V14.01,2013-02-03 19:56:00,
2013-02-03 12:01:00,47.0,44.5,30.32,NE,52,2.0,2.0,91,0.00,,---,0.00,VWS V14.01,2013-02-03 20:01:00,
2013-02-03 12:06:00,47.0,44.2,30.32,NE,54,0.0,0.0,90,0.00,,---,0.00,VWS V14.01,2013-02-03 20:06:00,
2013-02-03 12:11:00,47.0,44.5,30.32,NE,54,0.0,0.0,91,0.00,,---,0.00,VWS V14.01,2013-02-03 20:11:00,
2013-02-03 12:16:00,47.0,44.2,30.31,ENE,64,0.0,1.0,90,0.00,,---,0.00,VWS V14.01,2013-02-03 20:16:00,
2013-02-03 12:21:00,47.0,44.2,30.31,ENE,64,1.0,1.0,90,0.00,,---,0.00,VWS V14.01,2013-02-03 20:21:00,
2013-02-03 12:26:00,47.1,44.3,30.31,ENE,57,1.0,1.0,90,0.00,,---,0.00,VWS V14.01,2013-02-03 20:26:00,
2013-02-03 12:31:00,47.1,44.3,30.31,ENE,57,0.0,0.0,90,0.00,,---,0.00,VWS V14.01,2013-02-03 20:31:00,
2013-02-03 12:36:00,47.2,44.7,30.31,ENE,67,1.0,2.0,91,0.00,,---,0.00,VWS V14.01,2013-02-03 20:36:00,
2013-02-03 12:41:00,47.2,44.7,30.31,NE,44,0.0,1.0,91,0.00,,---,0.00,VWS V14.01,2013-02-03 20:41:00,
2013-02-03 12:46:00,47.2,44.7,30.30,ENE,70,1.0,1.0,91,0.00,,---,0.00,VWS V14.01,2013-02-03 20:46:00,
2013-02-03 12:51:00,47.2,44.7,30.30,ENE,70,0.0,0.0,91,0.00,,---,0.00,VWS V14.01,2013-02-03 20:51:00,
2013-02-03 12:56:00,47.3,44.8,30.30,ENE,70,0.0,1.0,91,0.00,,---,0.00,VWS V14.01,2013-02-03 20:56:00,
2013-02-03 13:01:00,47.2,44.4,30.30,ENE,72,2.0,2.0,90,0.00,,---,0.00,VWS V14.01,2013-02-03 21:01:00,
2013-02-03 13:06:00,47.2,44.7,30.30,ENE,78,1.0,1.0,91,0.00,,---,0.00,VWS V14.01,2013-02-03 21:06:00,
2013-02-03 13:11:00,47.4,44.9,30.30,ENE,77,0.0,3.0,91,0.00,,---,0.00,VWS V14.01,2013-02-03 21:11:00,
2013-02-03 13:16:00,47.6,45.1,30.29,East,94,0.0,1.0,91,0.00,,---,0.00,VWS V14.01,2013-02-03 21:16:00,
2013-02-03 13:21:00,47.8,45.3,30.29,SE,125,1.0,1.0,91,0.00,,---,0.00,VWS V14.01,2013-02-03 21:21:00,
2013-02-03 13:26:00,47.9,45.4,30.29,SSE,162,2.0,3.0,91,0.00,,---,0.00,VWS V14.01,2013-02-03 21:26:00,
2013-02-03 13:31:00,48.0,45.5,30.28,SE,127,1.0,4.0,91,0.00,,---,0.00,VWS V14.01,2013-02-03 21:31:00,
2013-02-03 13:36:00,48.0,45.2,30.28,SE,144,2.0,4.0,90,0.00,,---,0.00,VWS V14.01,2013-02-03 21:36:00,
2013-02-03 13:41:00,47.8,45.0,30.28,SSE,155,3.0,5.0,90,0.00,,---,0.00,VWS V14.01,2013-02-03 21:41:00,
2013-02-03 13:46:00,47.8,45.0,30.28,South,169,2.0,4.0,90,0.00,,---,0.00,VWS V14.01,2013-02-03 21:46:00,
2013-02-03 13:51:00,47.7,44.9,30.28,SSE,157,2.0,3.0,90,0.00,,---,0.00,VWS V14.01,2013-02-03 21:51:00,
2013-02-03 13:56:00,47.6,44.8,30.28,South,178,0.0,1.0,90,0.00,,---,0.00,VWS V14.01,2013-02-03 21:56:00,
2013-02-03 14:01:00,47.7,44.9,30.28,South,173,1.0,4.0,90,0.00,,---,0.00,VWS V14.01,2013-02-03 22:01:00,
2013-02-03 14:06:00,47.8,45.3,30.28,South,170,1.0,3.0,91,0.00,,---,0.00,VWS V14.01,2013-02-03 22:06:00,
2013-02-03 14:11:00,47.6,44.8,30.28,South,180,0.0,3.0,90,0.00,,---,0.00,VWS V14.01,2013-02-03 22:11:00,
2013-02-03 14:16:00,47.6,44.8,30.28,SSW,192,0.0,2.0,90,0.00,,---,0.00,VWS V14.01,2013-02-03 22:16:00,
2013-02-03 14:21:00,47.6,45.1,30.28,SSW,207,0.0,4.0,91,0.00,,---,0.00,VWS V14.01,2013-02-03 22:21:00,
2013-02-03 14:26:00,47.7,45.2,30.28,SSW,199,3.0,3.0,91,0.00,,---,0.00,VWS V14.01,2013-02-03 22:26:00,
2013-02-03 14:31:00,47.7,45.2,30.28,SSW,194,3.0,3.0,91,0.00,,---,0.00,VWS V14.01,2013-02-03 22:31:00,
2013-02-03 14:37:00,47.7,45.2,30.28,SW,221,2.0,5.0,91,0.00,,---,0.00,VWS V14.01,2013-02-03 22:37:00,
2013-02-03 14:42:00,47.6,45.1,30.28,SW,229,3.0,4.0,91,0.00,,---,0.00,VWS V14.01,2013-02-03 22:42:00,
2013-02-03 14:47:00,47.5,45.0,30.28,SSW,207,1.0,2.0,91,0.00,,---,0.00,VWS V14.01,2013-02-03 22:47:00,
2013-02-03 14:52:00,47.6,45.1,30.28,SW,222,1.0,3.0,91,0.00,,---,0.00,VWS V14.01,2013-02-03 22:52:00,
2013-02-03 14:57:00,47.5,45.0,30.28,SSW,213,1.0,3.0,91,0.00,,---,0.00,VWS V14.01,2013-02-03 22:57:00,
2013-02-03 15:02:00,47.4,44.9,30.28,SSW,211,0.0,2.0,91,0.00,,---,0.00,VWS V14.01,2013-02-03 23:02:00,
2013-02-03 15:07:00,47.5,45.0,30.28,SSW,209,3.0,3.0,91,0.00,,---,0.00,VWS V14.01,2013-02-03 23:07:00,
2013-02-03 15:12:00,47.5,45.0,30.28,SSW,211,0.0,3.0,91,0.00,,---,0.00,VWS V14.01,2013-02-03 23:12:00,
2013-02-03 15:17:00,47.6,45.1,30.28,SW,215,2.0,3.0,91,0.00,,---,0.00,VWS V14.01,2013-02-03 23:17:00,
2013-02-03 15:22:00,47.6,45.1,30.28,SW,219,3.0,3.0,91,0.00,,---,0.00,VWS V14.01,2013-02-03 23:22:00,
2013-02-03 15:27:00,47.6,45.1,30.28,SW,221,2.0,4.0,91,0.00,,---,0.00,VWS V14.01,2013-02-03 23:27:00,
2013-02-03 15:32:00,47.5,45.0,30.28,SW,227,3.0,5.0,91,0.00,,---,0.00,VWS V14.01,2013-02-03 23:32:00,
2013-02-03 15:37:00,47.4,44.9,30.28,SW,229,2.0,3.0,91,0.00,,---,0.00,VWS V14.01,2013-02-03 23:37:00,
2013-02-03 15:42:00,47.5,45.0,30.28,WSW,240,1.0,2.0,91,0.00,,---,0.00,VWS V14.01,2013-02-03 23:42:00,
2013-02-03 15:47:00,47.6,45.1,30.28,SW,236,1.0,4.0,91,0.00,,---,0.00,VWS V14.01,2013-02-03 23:47:00,
2013-02-03 15:52:00,47.6,45.1,30.28,SW,229,2.0,3.0,91,0.00,,---,0.00,VWS V14.01,2013-02-03 23:52:00,
2013-02-03 15:57:00,47.6,45.1,30.28,WSW,240,2.0,2.0,91,0.00,,---,0.00,VWS V14.01,2013-02-03 23:57:00,
2013-02-03 16:02:00,47.5,45.0,30.29,WSW,254,2.0,3.0,91,0.00,,---,0.00,VWS V14.01,2013-02-04 00:02:00,
2013-02-03 16:07:00,47.5,45.0,30.29,WSW,255,2.0,3.0,91,0.00,,---,0.00,VWS V14.01,2013-02-04 00:07:00,
2013-02-03 16:12:00,47.5,45.0,30.29,WSW,255,4.0,4.0,91,0.00,,---,0.00,VWS V14.01,2013-02-04 00:12:00,
2013-02-03 16:17:00,47.5,45.0,30.29,WSW,255,2.0,3.0,91,0.00,,---,0.00,VWS V14.01,2013-02-04 00:17:00,
2013-02-03 16:22:00,47.6,45.1,30.29,WSW,255,0.0,2.0,91,0.00,,---,0.00,VWS V14.01,2013-02-04 00:22:00,
2013-02-03 16:27:00,47.5,45.0,30.29,WSW,255,1.0,2.0,91,0.00,,---,0.00,VWS V14.01,2013-02-04 00:27:00,
2013-02-03 16:32:00,47.6,45.1,30.29,WSW,255,0.0,2.0,91,0.00,,---,0.00,VWS V14.01,2013-02-04 00:32:00,
2013-02-03 16:37:00,47.5,45.0,30.29,WSW,255,0.0,2.0,91,0.00,,---,0.00,VWS V14.01,2013-02-04 00:37:00,
2013-02-03 16:42:00,47.6,45.4,30.29,WSW,255,1.0,1.0,92,0.00,,---,0.00,VWS V14.01,2013-02-04 00:42:00,
2013-02-03 16:47:00,47.6,45.1,30.28,WSW,255,0.0,2.0,91,0.00,,---,0.00,VWS V14.01,2013-02-04 00:47:00,
2013-02-03 16:53:00,47.5,45.0,30.28,WSW,255,0.0,2.0,91,0.00,,---,0.00,VWS V14.01,2013-02-04 00:53:00,
2013-02-03 16:58:00,47.5,45.0,30.28,WSW,255,1.0,2.0,91,0.00,,---,0.00,VWS V14.01,2013-02-04 00:58:00,
2013-02-03 17:03:00,47.5,45.3,30.28,WSW,255,2.0,2.0,92,0.00,,---,0.00,VWS V14.01,2013-02-04 01:03:00,
2013-02-03 17:08:00,47.5,45.3,30.28,WSW,255,0.0,1.0,92,0.00,,---,0.00,VWS V14.01,2013-02-04 01:08:00,
2013-02-03 17:13:00,47.5,45.0,30.28,WSW,255,1.0,2.0,91,0.00,,---,0.00,VWS V14.01,2013-02-04 01:13:00,
2013-02-03 17:18:00,47.4,44.9,30.28,West,259,1.0,2.0,91,0.00,,---,0.00,VWS V14.01,2013-02-04 01:18:00,
2013-02-03 17:23:00,47.3,44.8,30.28,West,268,2.0,2.0,91,0.00,,---,0.00,VWS V14.01,2013-02-04 01:23:00,
2013-02-03 17:28:00,47.3,44.8,30.28,West,269,1.0,2.0,91,0.00,,---,0.00,VWS V14.01,2013-02-04 01:28:00,
2013-02-03 17:33:00,47.4,44.9,30.28,West,277,3.0,3.0,91,0.00,,---,0.00,VWS V14.01,2013-02-04 01:33:00,
2013-02-03 17:38:00,47.4,44.9,30.28,West,277,0.0,2.0,91,0.00,,---,0.00,VWS V14.01,2013-02-04 01:38:00,
2013-02-03 17:43:00,47.4,44.9,30.28,West,277,0.0,0.0,91,0.00,,---,0.00,VWS V14.01,2013-02-04 01:43:00,
2013-02-03 17:48:00,47.4,44.9,30.28,West,277,0.0,0.0,91,0.00,,---,0.00,VWS V14.01,2013-02-04 01:48:00,
2013-02-03 17:53:00,47.4,44.9,30.28,West,277,0.0,1.0,91,0.00,,---,0.00,VWS V14.01,2013-02-04 01:53:00,
2013-02-03 17:58:00,47.3,44.8,30.28,West,278,0.0,2.0,91,0.00,,---,0.00,VWS V14.01,2013-02-04 01:58:00,
2013-02-03 18:03:00,47.3,45.1,30.28,West,278,0.0,0.0,92,0.00,,---,0.00,VWS V14.01,2013-02-04 02:03:00,
2013-02-03 18:08:00,47.3,44.8,30.28,West,278,0.0,0.0,91,0.00,,---,0.00,VWS V14.01,2013-02-04 02:08:00,
2013-02-03 18:13:00,47.2,44.7,30.28,West,278,0.0,0.0,91,0.00,,---,0.00,VWS V14.01,2013-02-04 02:13:00,
2013-02-03 18:18:00,47.1,44.9,30.27,West,278,0.0,0.0,92,0.00,,---,0.00,VWS V14.01,2013-02-04 02:18:00,
2013-02-03 18:23:00,47.1,44.9,30.27,West,278,0.0,0.0,92,0.00,,---,0.00,VWS V14.01,2013-02-04 02:23:00,
2013-02-03 18:28:00,47.1,44.9,30.27,West,278,0.0,0.0,92,0.00,,---,0.00,VWS V14.01,2013-02-04 02:28:00,
2013-02-03 18:33:00,47.0,44.8,30.27,West,278,0.0,0.0,92,0.00,,---,0.00,VWS V14.01,2013-02-04 02:33:00,
2013-02-03 18:38:00,47.0,44.8,30.27,West,278,0.0,0.0,92,0.00,,---,0.00,VWS V14.01,2013-02-04 02:38:00,
2013-02-03 18:43:00,46.9,44.7,30.27,West,278,0.0,0.0,92,0.00,,---,0.00,VWS V14.01,2013-02-04 02:43:00,
2013-02-03 18:48:00,46.9,44.7,30.27,West,278,0.0,0.0,92,0.00,,---,0.00,VWS V14.01,2013-02-04 02:48:00,
2013-02-03 18:53:00,46.8,44.6,30.27,West,278,0.0,0.0,92,0.00,,---,0.00,VWS V14.01,2013-02-04 02:53:00,
2013-02-03 18:58:00,46.8,44.3,30.27,West,278,0.0,0.0,91,0.00,,---,0.00,VWS V14.01,2013-02-04 02:58:00,
2013-02-03 19:03:00,46.7,44.2,30.27,West,278,0.0,1.0,91,0.00,,---,0.00,VWS V14.01,2013-02-04 03:03:00,
2013-02-03 19:08:00,46.6,44.4,30.27,West,278,0.0,1.0,92,0.00,,---,0.00,VWS V14.01,2013-02-04 03:08:00,
2013-02-03 19:13:00,46.5,44.3,30.27,West,278,0.0,0.0,92,0.00,,---,0.00,VWS V14.01,2013-02-04 03:13:00,
2013-02-03 19:18:00,46.5,44.3,30.27,NE,47,1.0,3.0,92,0.00,,---,0.00,VWS V14.01,2013-02-04 03:18:00,
2013-02-03 19:23:00,46.4,44.2,30.27,NE,47,0.0,0.0,92,0.00,,---,0.00,VWS V14.01,2013-02-04 03:23:00,
2013-02-03 19:28:00,46.4,44.2,30.27,NE,47,0.0,0.0,92,0.00,,---,0.00,VWS V14.01,2013-02-04 03:28:00,
2013-02-03 19:33:00,46.4,44.2,30.27,NE,47,0.0,0.0,92,0.00,,---,0.00,VWS V14.01,2013-02-04 03:33:00,
2013-02-03 19:38:00,46.4,44.2,30.27,NE,55,0.0,0.0,92,0.00,,---,0.00,VWS V14.01,2013-02-04 03:38:00,
2013-02-03 19:43:00,46.3,44.1,30.27,NE,54,0.0,0.0,92,0.00,,---,0.00,VWS V14.01,2013-02-04 03:43:00,
2013-02-03 19:48:00,46.3,44.1,30.27,NE,54,0.0,1.0,92,0.00,,---,0.00,VWS V14.01,2013-02-04 03:48:00,
2013-02-03 19:53:00,46.2,44.0,30.27,NE,54,0.0,1.0,92,0.00,,---,0.00,VWS V14.01,2013-02-04 03:53:00,
2013-02-03 19:58:00,46.2,44.0,30.27,NE,54,0.0,1.0,92,0.00,,---,0.00,VWS V14.01,2013-02-04 03:58:00,
2013-02-03 20:04:00,46.2,44.0,30.27,NE,54,0.0,1.0,92,0.00,,---,0.00,VWS V14.01,2013-02-04 04:04:00,
2013-02-03 20:09:00,46.1,43.9,30.27,NE,54,0.0,1.0,92,0.00,,---,0.00,VWS V14.01,2013-02-04 04:09:00,
2013-02-03 20:14:00,46.1,43.9,30.27,NE,54,0.0,1.0,92,0.00,,---,0.00,VWS V14.01,2013-02-04 04:14:00,
2013-02-03 20:19:00,46.1,43.9,30.26,NE,54,1.0,1.0,92,0.00,,---,0.00,VWS V14.01,2013-02-04 04:19:00,
2013-02-03 20:24:00,46.0,43.8,30.26,ENE,63,1.0,2.0,92,0.00,,---,0.00,VWS V14.01,2013-02-04 04:24:00,
2013-02-03 20:29:00,46.0,43.8,30.26,ENE,63,0.0,1.0,92,0.00,,---,0.00,VWS V14.01,2013-02-04 04:29:00,
2013-02-03 20:34:00,46.0,43.8,30.26,ENE,63,0.0,0.0,92,0.00,,---,0.00,VWS V14.01,2013-02-04 04:34:00,
2013-02-03 20:39:00,46.0,43.8,30.26,ENE,63,0.0,0.0,92,0.00,,---,0.00,VWS V14.01,2013-02-04 04:39:00,
2013-02-03 20:44:00,45.9,43.7,30.26,ENE,63,0.0,0.0,92,0.00,,---,0.00,VWS V14.01,2013-02-04 04:44:00,
2013-02-03 20:49:00,45.9,43.7,30.26,ENE,63,0.0,0.0,92,0.00,,---,0.00,VWS V14.01,2013-02-04 04:49:00,
2013-02-03 20:54:00,45.9,43.7,30.26,ENE,63,0.0,0.0,92,0.00,,---,0.00,VWS V14.01,2013-02-04 04:54:00,
2013-02-03 20:59:00,45.9,43.7,30.26,ENE,63,0.0,0.0,92,0.00,,---,0.00,VWS V14.01,2013-02-04 04:59:00,
2013-02-03 21:00:00,45.9,43.7,30.27,ENE,63,0.0,0.0,92,0.00,,---,0.00,VWS V14.01,2013-02-04 05:00:00,
2013-02-03 21:01:00,45.8,43.6,30.27,ENE,63,0.0,0.0,92,0.00,,---,0.00,VWS V14.01,2013-02-04 05:01:00,
2013-02-03 21:04:00,45.9,43.7,30.27,ENE,69,0.0,1.0,92,0.00,,---,0.00,VWS V14.01,2013-02-04 05:04:00,
2013-02-03 21:09:00,45.9,43.7,30.27,East,85,0.0,0.0,92,0.00,,---,0.00,VWS V14.01,2013-02-04 05:09:00,
2013-02-03 21:14:00,45.9,43.7,30.26,East,88,0.0,2.0,92,0.00,,---,0.00,VWS V14.01,2013-02-04 05:14:00,
2013-02-03 21:19:00,45.9,43.7,30.26,East,88,0.0,0.0,92,0.00,,---,0.00,VWS V14.01,2013-02-04 05:19:00,
2013-02-03 21:24:00,45.8,43.6,30.26,East,88,0.0,0.0,92,0.00,,---,0.00,VWS V14.01,2013-02-04 05:24:00,
2013-02-03 21:29:00,45.8,43.6,30.27,East,88,0.0,0.0,92,0.00,,---,0.00,VWS V14.01,2013-02-04 05:29:00,
2013-02-03 21:34:00,45.9,43.7,30.27,NNE,22,0.0,2.0,92,0.00,,---,0.00,VWS V14.01,2013-02-04 05:34:00,
2013-02-03 21:39:00,46.1,44.2,30.27,NNE,22,2.0,3.0,93,0.00,,---,0.00,VWS V14.01,2013-02-04 05:39:00,
2013-02-03 21:44:00,46.3,44.4,30.27,NNE,33,1.0,3.0,93,0.00,,---,0.00,VWS V14.01,2013-02-04 05:44:00,
2013-02-03 21:49:00,46.0,43.8,30.27,ENE,66,1.0,3.0,92,0.00,,---,0.00,VWS V14.01,2013-02-04 05:49:00,
2013-02-03 21:54:00,45.8,43.6,30.27,ENE,66,1.0,2.0,92,0.00,,---,0.00,VWS V14.01,2013-02-04 05:54:00,
2013-02-03 21:59:00,45.7,43.5,30.26,ENE,66,0.0,2.0,92,0.00,,---,0.00,VWS V14.01,2013-02-04 05:59:00,
2013-02-03 22:04:00,45.7,43.8,30.26,ENE,76,0.0,3.0,93,0.00,,---,0.00,VWS V14.01,2013-02-04 06:04:00,
2013-02-03 22:09:00,45.7,43.8,30.26,ENE,76,0.0,1.0,93,0.00,,---,0.00,VWS V14.01,2013-02-04 06:09:00,
2013-02-03 22:14:00,45.6,43.7,30.26,ENE,76,0.0,0.0,93,0.00,,---,0.00,VWS V14.01,2013-02-04 06:14:00,
2013-02-03 22:19:00,45.6,43.7,30.26,ENE,76,0.0,0.0,93,0.00,,---,0.00,VWS V14.01,2013-02-04 06:19:00,
2013-02-03 22:24:00,45.6,43.7,30.26,ENE,76,0.0,0.0,93,0.00,,---,0.00,VWS V14.01,2013-02-04 06:24:00,
2013-02-03 22:29:00,45.5,43.6,30.25,ENE,76,0.0,0.0,93,0.00,,---,0.00,VWS V14.01,2013-02-04 06:29:00,
2013-02-03 22:34:00,45.5,43.6,30.25,East,80,0.0,2.0,93,0.00,,---,0.00,VWS V14.01,2013-02-04 06:34:00,
2013-02-03 22:39:00,45.4,43.5,30.25,East,80,0.0,2.0,93,0.00,,---,0.00,VWS V14.01,2013-02-04 06:39:00,
2013-02-03 22:44:00,45.4,43.5,30.26,East,80,0.0,0.0,93,0.00,,---,0.00,VWS V14.01,2013-02-04 06:44:00,
2013-02-03 22:49:00,45.4,43.5,30.26,East,80,0.0,0.0,93,0.00,,---,0.00,VWS V14.01,2013-02-04 06:49:00,
2013-02-03 22:54:00,45.4,43.5,30.26,East,80,0.0,0.0,93,0.00,,---,0.00,VWS V14.01,2013-02-04 06:54:00,
2013-02-03 22:59:00,45.3,43.4,30.26,East,80,2.0,2.0,93,0.00,,---,0.00,VWS V14.01,2013-02-04 06:59:00,
2013-02-03 23:04:00,45.2,43.3,30.26,East,80,2.0,2.0,93,0.00,,---,0.00,VWS V14.01,2013-02-04 07:04:00,
2013-02-03 23:10:00,45.2,43.3,30.26,East,80,1.0,2.0,93,0.00,,---,0.00,VWS V14.01,2013-02-04 07:10:00,
2013-02-03 23:15:00,45.2,43.3,30.25,East,80,0.0,1.0,93,0.00,,---,0.00,VWS V14.01,2013-02-04 07:15:00,
2013-02-03 23:20:00,45.2,43.3,30.25,ESE,121,2.0,3.0,93,0.00,,---,0.00,VWS V14.01,2013-02-04 07:20:00,
2013-02-03 23:25:00,45.2,43.3,30.25,ESE,108,1.0,3.0,93,0.00,,---,0.00,VWS V14.01,2013-02-04 07:25:00,
2013-02-03 23:30:00,45.1,43.2,30.25,East,94,1.0,2.0,93,0.00,,---,0.00,VWS V14.01,2013-02-04 07:30:00,
2013-02-03 23:35:00,45.2,43.3,30.25,East,92,2.0,3.0,93,0.00,,---,0.00,VWS V14.01,2013-02-04 07:35:00,
2013-02-03 23:40:00,45.2,43.3,30.25,East,91,0.0,2.0,93,0.00,,---,0.00,VWS V14.01,2013-02-04 07:40:00,
2013-02-03 23:45:00,45.2,43.3,30.24,East,90,0.0,1.0,93,0.00,,---,0.00,VWS V14.01,2013-02-04 07:45:00,
2013-02-03 23:50:00,45.3,43.4,30.24,East,88,0.0,1.0,93,0.00,,---,0.00,VWS V14.01,2013-02-04 07:50:00,
2013-02-03 23:55:00,45.6,43.7,30.24,North,5,2.0,2.0,93,0.00,,---,0.00,VWS V14.01,2013-02-04 07:55:00,